Location: Newark
(33.7763°N, 130.5393°E)
Time: 12:38:48
(UTC+00:00)

ISS - Visible Passes

Search period start: 19 August 2019 00:00
Search period end: 29 August 2019 00:00
Orbit: 410 x 420 km, 51.6° (Epoch: 19 August)

Date Brightness Start Highest point End Pass type
(mag) Time Alt. Az. Time Alt. Az. Time Alt. Az.
23 Aug -1.1 19:53:04 10° SSE 19:55:06 15° SE 19:57:09 10° E visible
25 Aug -3.2 19:51:13 13° SSW 19:54:00 52° SE 19:57:16 10° NE visible
26 Aug -2.1 19:04:49 25° SE 19:05:19 26° SE 19:08:08 10° ENE visible
27 Aug -0.5 18:18:18 10° E 18:18:18 10° E 18:18:23 10° E visible
27 Aug -3.2 19:51:12 21° WSW 19:53:04 43° NW 19:56:16 10° NNE visible
28 Aug -3.6 19:04:35 68° NE 19:04:35 68° NE 19:07:34 10° NE visible
